DW5785 Weather Reports


Display with metric or nautical units.
time (UTC)temp
F
wind
direction
speed
MPH
gust
MPH
rain 1hr
in
rain 24hr
in
rain mn
in
humidity
%
barometer
mb
20260905165046 69 264 6.0 15.0 0.00 0.09 0.00 47 1020.4
20260905164546 69 264 2.0 11.0 0.00 0.09 0.00 47 1020.3
20260905164044 70 219 9.0 14.0 0.00 0.09 0.00 47 1020.3
20260905163546 70 236 12.0 14.0 0.00 0.09 0.00 47 1020.2
20260905163052 70 225 8.0 14.0 0.00 0.09 0.00 47 1020.1
20260905162543 70 202 12.0 16.0 0.00 0.09 0.00 47 1020.0
20260905162043 70 216 6.0 15.0 0.00 0.09 0.00 47 1020.0
20260905161546 70 218 9.0 15.0 0.00 0.09 0.00 47 1019.9
20260905161044 70 310 8.0 10.0 0.00 0.09 0.00 47 1019.8
20260905160552 70 264 11.0 11.0 0.00 0.09 0.00 48 1019.8
20260905160046 70 282 9.0 19.0 0.00 0.09 0.00 47 1019.7
20260905155543 71 222 7.0 13.0 0.00 0.09 0.00 47 1019.6
20260905155043 71 242 7.0 14.0 0.00 0.09 0.00 46 1019.5
20260905154549 71 257 5.0 12.0 0.00 0.09 0.00 47 1019.6
20260905154047 71 256 7.0 17.0 0.00 0.09 0.00 46 1019.6
20260905153552 71 241 6.0 10.0 0.00 0.09 0.00 46 1019.5
20260905153043 71 161 4.0 12.0 0.00 0.09 0.00 46 1019.4
20260905152546 71 253 7.0 15.0 0.00 0.09 0.00 46 1019.5
20260905152043 71 203 4.0 13.0 0.00 0.09 0.00 47 1019.4
20260905151546 71 304 12.0 14.0 0.00 0.09 0.00 46 1019.3
20260905151044 71 216 6.0 14.0 0.00 0.09 0.00 46 1019.3
20260905150543 71 229 13.0 18.0 0.00 0.09 0.00 46 1019.4
20260905150046 71 185 15.0 21.0 0.00 0.09 0.00 45 1019.3
20260905145543 71 212 12.0 19.0 0.00 0.09 0.00 45 1019.3
20260905145043 71 202 11.0 24.0 0.00 0.09 0.00 45 1019.2
20260905144543 71 222 2.0 17.0 0.00 0.09 0.00 45 1019.2
20260905144044 71 194 12.0 22.0 0.00 0.09 0.00 44 1019.2
20260905143543 71 225 9.0 18.0 0.00 0.09 0.00 45 1019.2
20260905143043 71 261 4.0 17.0 0.00 0.09 0.00 45 1019.2
20260905142546 71 228 8.0 18.0 0.00 0.09 0.00 45 1019.2
20260905142046 71 282 6.0 18.0 0.00 0.09 0.00 45 1019.3
20260905141546 71 197 12.0 18.0 0.00 0.09 0.00 45 1019.2
20260905141044 71 251 8.0 16.0 0.00 0.09 0.00 45 1019.2
20260905140546 70 208 8.0 18.0 0.00 0.09 0.00 46 1019.2
20260905140043 70 224 11.0 17.0 0.00 0.09 0.00 45 1019.1
20260905135546 70 189 9.0 20.0 0.00 0.09 0.00 46 1019.2
20260905135046 70 199 12.0 19.0 0.00 0.09 0.00 47 1019.1
20260905134546 70 185 10.0 18.0 0.00 0.09 0.00 48 1019.1
20260905134047 70 191 16.0 17.0 0.00 0.09 0.00 47 1019.1
20260905133543 71 233 4.0 17.0 0.00 0.09 0.00 47 1019.2
20260905133043 71 193 9.0 17.0 0.00 0.09 0.00 47 1019.1
20260905132543 71 179 3.0 23.0 0.00 0.09 0.00 47 1019.1
20260905132043 71 156 4.0 15.0 0.00 0.09 0.00 47 1019.2
20260905131549 70 193 7.0 18.0 0.00 0.09 0.00 49 1019.1
20260905131044 69 210 17.0 19.0 0.00 0.09 0.00 49 1019.2
20260905130543 69 201 11.0 23.0 0.00 0.09 0.00 49 1019.1
20260905130043 69 186 12.0 20.0 0.00 0.09 0.00 49 1019.2
20260905125543 70 166 11.0 19.0 0.00 0.09 0.00 48 1019.1
20260905125046 70 209 10.0 13.0 0.00 0.09 0.00 49 1019.2
20260905124552 70 210 14.0 20.0 0.00 0.09 0.00 48 1019.2
20260905124047 69 217 5.0 16.0 0.00 0.09 0.00 49 1019.2
20260905123543 69 219 12.0 19.0 0.00 0.09 0.00 49 1019.3
20260905123043 68 187 10.0 22.0 0.00 0.09 0.00 49 1019.4
20260905122543 68 210 12.0 20.0 0.00 0.09 0.00 49 1019.4
20260905122046 69 239 7.0 21.0 0.00 0.09 0.00 48 1019.4
20260905121546 70 207 4.0 21.0 0.00 0.09 0.00 47 1019.4
20260905121047 70 199 17.0 22.0 0.00 0.09 0.00 47 1019.4
20260905120543 69 156 7.0 21.0 0.00 0.09 0.00 48 1019.4
20260905120049 68 195 11.0 17.0 0.00 0.09 0.00 52 1019.5
20260905115543 68 160 11.0 22.0 0.00 0.09 0.00 52 1019.5
20260905115044 68 220 15.0 20.0 0.00 0.09 0.00 52 1019.5
20260905114546 68 118 18.0 20.0 0.00 0.09 0.00 52 1019.5
20260905114046 69 206 14.0 20.0 0.00 0.09 0.00 51 1019.5
20260905113543 69 231 9.0 19.0 0.00 0.09 0.00 52 1019.5
20260905113046 68 216 18.0 22.0 0.00 0.09 0.00 51 1019.5
20260905112547 69 199 15.0 22.0 0.00 0.09 0.00 50 1019.5
20260905112043 69 108 4.0 16.0 0.00 0.09 0.00 51 1019.5
20260905111546 69 223 11.0 19.0 0.00 0.09 0.00 51 1019.4
20260905111043 69 111 7.0 24.0 0.00 0.09 0.00 50 1019.5
20260905110543 69 254 4.0 23.0 0.00 0.09 0.00 51 1019.5
20260905110046 69 141 8.0 15.0 0.00 0.09 0.00 52 1019.5
20260905105544 69 114 5.0 20.0 0.00 0.09 0.00 54 1019.4
20260905105043 68 191 15.0 21.0 0.00 0.09 0.00 52 1019.4
20260905104552 68 149 9.0 17.0 0.00 0.09 0.00 56 1019.4
20260905104043 68 112 9.0 14.0 0.00 0.09 0.00 59 1019.3
20260905103543 67 151 7.0 14.0 0.00 0.09 0.00 59 1019.5
20260905103043 66 124 4.0 16.0 0.00 0.09 0.00 60 1019.5
20260905102547 66 188 7.0 18.0 0.00 0.09 0.00 60 1019.5
20260905102043 66 162 11.0 16.0 0.00 0.09 0.00 60 1019.5
20260905101543 67 226 11.0 15.0 0.00 0.09 0.00 58 1019.5
20260905101043 67 291 4.0 16.0 0.00 0.09 0.00 59 1019.4
20260905100546 67 92 4.0 12.0 0.00 0.09 0.00 61 1019.4
20260905100046 66 220 3.0 15.0 0.00 0.09 0.00 62 1019.3
20260905095553 66 145 4.0 15.0 0.00 0.09 0.00 64 1019.4
20260905095043 66 188 9.0 18.0 0.00 0.09 0.00 64 1019.4
20260905094543 65 224 8.0 11.0 0.00 0.09 0.00 65 1019.4
20260905094043 65 162 7.0 13.0 0.00 0.09 0.00 66 1019.4
20260905093543 65 173 10.0 13.0 0.00 0.09 0.00 65 1019.4
20260905093043 65 175 10.0 16.0 0.00 0.09 0.00 65 1019.4
20260905092544 65 359 4.0 12.0 0.00 0.09 0.00 65 1019.4
20260905092046 65 148 9.0 14.0 0.00 0.09 0.00 66 1019.4
20260905091543 64 174 4.0 14.0 0.00 0.09 0.00 66 1019.6
20260905091043 64 213 7.0 14.0 0.00 0.09 0.00 68 1019.5
20260905090549 64 189 12.0 17.0 0.00 0.09 0.00 67 1019.5
20260905090043 64 162 7.0 16.0 0.00 0.09 0.00 68 1019.4
20260905085544 63 264 3.0 14.0 0.00 0.09 0.00 69 1019.4
20260905085046 64 180 8.0 15.0 0.00 0.09 0.00 69 1019.4
20260905084549 63 206 6.0 12.0 0.00 0.09 0.00 69 1019.4
20260905084043 63 251 3.0 11.0 0.00 0.09 0.00 70 1019.5
20260905083543 63 203 7.0 17.0 0.00 0.09 0.00 70 1019.5
20260905083043 63 182 5.0 13.0 0.00 0.09 0.00 71 1019.6
20260905082547 63 199 5.0 17.0 0.00 0.09 0.00 71 1019.5
20260905082052 63 197 11.0 15.0 0.00 0.09 0.00 71 1019.5
20260905081543 63 216 3.0 10.0 0.00 0.09 0.00 73 1019.5
20260905081046 63 162 7.0 10.0 0.00 0.09 0.00 74 1019.4
20260905080543 62 119 5.0 12.0 0.00 0.09 0.00 75 1019.4
20260905080043 62 208 8.0 14.0 0.00 0.09 0.00 75 1019.3
20260905075544 62 226 6.0 16.0 0.00 0.09 0.00 75 1019.2
20260905075043 62 166 12.0 13.0 0.00 0.09 0.00 77 1019.2
20260905074546 61 208 4.0 12.0 0.00 0.09 0.00 77 1019.2
20260905074049 61 162 3.0 15.0 0.00 0.09 0.00 77 1019.1
20260905073546 61 156 9.0 13.0 0.00 0.09 0.00 78 1019.0
20260905073046 60 158 7.0 14.0 0.00 0.09 0.00 78 1018.9
20260905072544 60 132 10.0 15.0 0.00 0.09 0.00 79 1018.8
20260905072046 60 124 3.0 14.0 0.00 0.09 0.00 79 1018.9
20260905071546 60 179 9.0 14.0 0.00 0.09 0.00 80 1018.8
20260905071043 60 176 2.0 16.0 0.00 0.09 0.00 80 1019.0
20260905070552 60 129 4.0 19.0 0.00 0.09 0.00 80 1019.0
20260905070052 60 160 10.0 13.0 0.00 0.09 0.00 82 1019.1
20260905065544 59 175 6.0 15.0 0.00 0.09 0.00 83 1019.1
20260905065043 59 129 5.0 18.0 0.00 0.09 0.00 84 1019.1
20260905064546 59 153 3.0 14.0 0.00 0.09 0.00 84 1019.1
20260905064043 59 160 6.0 16.0 0.00 0.09 0.00 85 1019.1
20260905063543 59 148 6.0 13.0 0.00 0.09 0.00 85 1019.1
20260905063046 59 195 6.0 15.0 0.00 0.09 0.00 85 1019.0
20260905062547 58 160 13.0 15.0 0.00 0.09 0.00 85 1018.9
20260905062049 58 143 6.0 16.0 0.00 0.09 0.00 84 1018.8
20260905061546 58 188 7.0 15.0 0.00 0.09 0.00 84 1018.8
20260905061043 58 166 11.0 17.0 0.00 0.09 0.00 85 1018.7
20260905060543 58 170 7.0 15.0 0.00 0.09 0.00 86 1018.6
20260905060046 58 153 9.0 15.0 0.00 0.09 0.00 86 1018.6
20260905055553 57 148 10.0 15.0 0.00 0.09 0.00 87 1018.6
20260905055049 57 183 7.0 12.0 0.00 0.09 0.00 88 1018.6
20260905054549 57 149 11.0 11.0 0.00 0.09 0.00 88 1018.6
20260905054043 57 153 7.0 9.0 0.00 0.09 0.00 88 1018.5
20260905053546 57 153 3.0 11.0 0.00 0.09 0.00 87 1018.4
20260905053046 57 199 7.0 11.0 0.00 0.09 0.00 87 1018.3
20260905052547 57 157 7.0 11.0 0.00 0.09 0.00 87 1018.3
20260905052049 57 131 5.0 11.0 0.00 0.09 0.00 87 1018.3
20260905051546 57 171 8.0 11.0 0.00 0.09 0.00 87 1018.2
20260905051046 57 153 3.0 8.0 0.00 0.09 0.00 87 1018.2
20260905050549 57 162 4.0 8.0 0.00 0.09 0.00 86 1018.1
20260905050046 57 123 6.0 10.0 0.00 0.09 0.00 86 1018.0
20260905045550 57 156 8.0 9.0 0.00 0.09 0.00 85 1017.9
20260905045043 57 177 9.0 11.0 0.01 0.09 0.00 85 1017.8
20260905044543 57 103 4.0 10.0 0.02 0.09 0.00 85 1017.8
20260905044043 57 110 3.0 10.0 0.02 0.09 0.00 86 1017.7
20260905043543 57 132 5.0 9.0 0.03 0.09 0.00 87 1017.7
20260905043043 57 169 8.0 10.0 0.03 0.09 0.00 87 1017.8
20260905042544 57 216 5.0 6.0 0.05 0.09 0.00 87 1017.7
20260905042043 57 209 3.0 4.0 0.07 0.09 0.00 88 1017.4
20260905041546 57 315 1.0 7.0 0.07 0.09 0.00 88 1017.3
20260905041046 57 187 5.0 9.0 0.07 0.09 0.00 88 1017.1
20260905040549 57 164 3.0 8.0 0.07 0.09 0.00 88 1016.8
20260905040043 57 127 7.0 14.0 0.08 0.09 0.00 87 1016.9
20260905035550 57 108 7.0 13.0 0.07 0.08 0.00 87 1017.0
20260905035046 57 130 6.0 10.0 0.07 0.07 0.00 86 1017.2
20260905034543 57 135 3.0 10.0 0.06 0.07 0.00 86 1017.3
20260905034046 57 164 4.0 9.0 0.06 0.07 0.00 85 1017.6
20260905033543 57 162 7.0 12.0 0.05 0.06 0.00 84 1017.5
20260905033049 58 138 7.0 11.0 0.04 0.05 0.00 83 1017.4
20260905032547 58 184 7.0 12.0 0.03 0.03 0.00 81 1017.6
20260905032043 59 190 7.0 10.0 0.01 0.02 0.00 79 1017.6
20260905031546 59 169 5.0 12.0 0.00 0.01 0.00 79 1017.6
20260905031052 59 304 4.0 12.0 0.00 0.01 0.00 78 1017.4
20260905030549 59 208 7.0 15.0 0.00 0.01 0.00 77 1017.4
20260905030046 59 125 4.0 12.0 0.00 0.00 0.00 77 1017.6
20260905025553 60 114 5.0 15.0 0.00 0.00 0.00 76 1017.7
20260905025046 60 155 6.0 11.0 0.00 0.00 0.00 74 1017.8
20260905024546 60 237 4.0 14.0 0.00 0.00 0.00 73 1017.6
20260905024043 60 241 3.0 13.0 0.00 0.00 0.00 74 1017.4
20260905023543 60 209 3.0 14.0 0.00 0.00 0.00 74 1017.1
20260905023046 60 199 5.0 13.0 0.00 0.00 0.00 74 1017.2
20260905022547 60 179 6.0 13.0 0.00 0.00 0.00 74 1017.0
20260905022046 60 175 9.0 12.0 0.00 0.00 0.00 75 1016.8
20260905021543 60 237 8.0 8.0 0.00 0.00 0.00 75 1017.2
20260905021043 61 145 3.0 10.0 0.00 0.00 0.00 74 1016.9
20260905020546 61 230 3.0 8.0 0.00 0.00 0.00 74 1016.6
20260905020042 61 212 4.0 9.0 0.00 0.00 0.00 74 1016.7
20260905015547 61 172 2.0 15.0 0.00 0.00 0.00 73 1017.0
20260905015052 61 150 5.0 13.0 0.00 0.00 0.00 72 1016.4
20260905014543 61 211 12.0 12.0 0.00 0.00 0.00 71 1017.1
20260905014048 62 189 7.0 10.0 0.00 0.00 0.00 70 1017.0
20260905013545 62 141 4.0 12.0 0.00 0.00 0.00 68 1017.1
20260905013043 62 195 10.0 12.0 0.00 0.00 0.00 66 1016.4
20260905012544 63 214 3.0 10.0 0.00 0.00 0.00 65 1016.5
20260905012049 63 192 6.0 13.0 0.00 0.00 0.00 65 1016.3
20260905011543 63 199 9.0 12.0 0.00 0.00 0.00 65 1016.3
20260905011045 64 237 11.0 18.0 0.00 0.00 0.00 66 1016.2
20260905010543 64 216 5.0 11.0 0.00 0.00 0.00 67 1016.6
20260905010043 64 168 8.0 13.0 0.00 0.00 0.00 67 1016.5
20260905005547 64 224 9.0 13.0 0.00 0.00 0.00 68 1016.3
20260905005046 64 228 4.0 14.0 0.00 0.00 0.00 69 1016.4
20260905004546 64 233 4.0 15.0 0.00 0.00 0.00 70 1016.4
20260905004049 64 212 8.0 11.0 0.00 0.00 0.00 70 1016.0
20260905003546 64 237 3.0 13.0 0.00 0.00 0.00 70 1016.1
20260905003043 64 226 7.0 15.0 0.00 0.00 0.00 70 1016.1
20260905002547 64 202 6.0 13.0 0.00 0.00 0.00 69 1016.1
20260905002046 64 226 6.0 19.0 0.00 0.00 0.00 69 1016.0
20260905001543 64 212 4.0 13.0 0.00 0.00 0.00 68 1016.0
20260905001049 64 211 6.0 13.0 0.00 0.00 0.00 68 1015.9
20260905000546 64 236 5.0 10.0 0.00 0.00 0.00 67 1016.1
20260905000049 64 218 9.0 20.0 0.00 0.00 0.00 68 1015.9
20260904235547 64 187 6.0 18.0 0.00 0.00 0.00 70 1015.9
20260904235052 64 189 10.0 17.0 0.00 0.00 0.00 71 1015.9
20260904234543 65 231 12.0 18.0 0.00 0.00 0.00 71 1016.0
20260904234043 65 277 5.0 12.0 0.00 0.00 0.00 71 1016.0
20260904233546 65 336 7.0 15.0 0.00 0.00 0.00 72 1016.0
20260904233046 64 173 6.0 17.0 0.00 0.00 0.00 73 1016.1
20260904232544 64 282 5.0 12.0 0.00 0.00 0.00 74 1015.9
20260904232046 64 277 8.0 14.0 0.00 0.00 0.00 74 1016.0
20260904231543 64 209 6.0 15.0 0.00 0.00 0.00 76 1016.1
20260904231046 63 231 10.0 12.0 0.00 0.00 0.00 77 1016.0
20260904230543 63 257 10.0 13.0 0.00 0.00 0.00 77 1015.7
20260904230043 63 282 12.0 15.0 0.00 0.00 0.00 77 1015.7
20260904225547 63 277 5.0 13.0 0.00 0.00 0.00 76 1015.3
20260904225049 63 226 5.0 15.0 0.00 0.00 0.00 76 1015.3
20260904224543 63 241 6.0 13.0 0.00 0.00 0.00 75 1015.5
20260904224043 64 324 4.0 15.0 0.00 0.00 0.00 77 1015.2
20260904223552 64 266 8.0 18.0 0.00 0.00 0.00 75 1014.9
20260904223043 64 230 9.0 19.0 0.00 0.00 0.00 74 1014.8
20260904222544 64 295 12.0 16.0 0.00 0.00 0.00 74 1014.4
20260904222043 64 312 6.0 14.0 0.00 0.00 0.00 73 1014.0
20260904221549 64 314 9.0 15.0 0.00 0.00 0.00 73 1013.8
20260904221052 65 299 7.0 12.0 0.00 0.00 0.00 72 1013.7
20260904220543 65 245 7.0 15.0 0.00 0.00 0.00 72 1013.7
20260904220045 65 282 11.0 11.0 0.00 0.00 0.00 71 1013.3
20260904215553 65 253 9.0 12.0 0.00 0.00 0.00 71 1013.0
20260904215052 66 260 5.0 12.0 0.00 0.00 0.00 70 1013.0
20260904214545 66 287 7.0 9.0 0.00 0.00 0.00 70 1012.9
20260904214042 67 246 5.0 8.0 0.00 0.00 0.00 69 1012.7
20260904213542 67 260 4.0 9.0 0.00 0.00 0.00 69 1012.6
20260904213043 68 226 4.0 9.0 0.00 0.00 0.00 68 1012.6
20260904212544 69 251 4.0 8.0 0.00 0.00 0.00 67 1012.6
20260904212045 70 224 4.0 9.0 0.00 0.00 0.00 67 1012.5
20260904211545 71 304 4.0 8.0 0.00 0.00 0.00 65 1012.5
20260904211046 72 271 4.0 10.0 0.00 0.00 0.00 64 1012.3
20260904210545 73 246 2.0 8.0 0.00 0.00 0.00 63 1012.3
20260904210049 74 282 0.0 7.0 0.00 0.00 0.00 62 1012.3
20260904205544 75 309 3.0 4.0 0.00 0.00 0.00 61 1012.2
20260904205049 75 232 2.0 4.0 0.00 0.00 0.00 60 1012.2
20260904204545 75 212 2.0 6.0 0.00 0.00 0.00 60 1012.2
20260904204048 75 153 4.0 8.0 0.00 0.00 0.00 60 1012.1
20260904203543 75 178 6.0 9.0 0.00 0.00 0.00 60 1012.1
20260904203043 75 164 5.0 8.0 0.00 0.00 0.00 60 1012.1
20260904202547 76 141 3.0 6.0 0.00 0.00 0.00 60 1012.0
20260904202046 76 143 6.0 7.0 0.00 0.00 0.00 59 1012.1
20260904201546 76 129 6.0 7.0 0.00 0.00 0.00 59 1012.1
20260904201047 76 174 4.0 7.0 0.00 0.00 0.00 59 1012.1
20260904200543 76 145 6.0 7.0 0.00 0.00 0.00 59 1012.2
20260904200046 76 129 4.0 8.0 0.00 0.00 0.00 59 1012.2
20260904195544 76 156 6.0 8.0 0.00 0.00 0.00 59 1012.3
20260904195043 76 156 5.0 8.0 0.00 0.00 0.00 58 1012.4
20260904194546 77 172 4.0 8.0 0.00 0.00 0.00 58 1012.3
20260904194046 77 138 7.0 8.0 0.00 0.00 0.00 58 1012.3
20260904193543 77 172 5.0 8.0 0.00 0.00 0.00 58 1012.4
20260904193046 77 164 4.0 8.0 0.00 0.00 0.00 57 1012.3
20260904192550 77 153 2.0 6.0 0.00 0.00 0.00 57 1012.3
20260904192043 77 163 3.0 6.0 0.00 0.00 0.00 56 1012.3
20260904191543 78 139 4.0 7.0 0.00 0.00 0.00 56 1012.3
20260904191049 78 166 3.0 8.0 0.00 0.00 0.00 55 1012.3
20260904190546 78 166 5.0 8.0 0.00 0.00 0.00 55 1012.2
20260904190046 78 156 5.0 9.0 0.00 0.00 0.00 56 1012.2
20260904185544 78 172 5.0 10.0 0.00 0.00 0.00 55 1012.1
20260904185043 78 127 3.0 9.0 0.00 0.00 0.00 55 1012.1
20260904184549 78 160 7.0 9.0 0.00 0.00 0.00 55 1012.1
20260904184043 78 124 6.0 7.0 0.00 0.00 0.00 55 1012.0
20260904183543 78 116 3.0 6.0 0.00 0.00 0.00 55 1011.9
20260904183046 79 193 3.0 5.0 0.00 0.00 0.00 55 1012.0
20260904182544 79 139 5.0 7.0 0.00 0.00 0.00 54 1012.0
20260904182043 79 129 3.0 6.0 0.00 0.00 0.00 54 1011.9
20260904181546 79 162 4.0 8.0 0.00 0.00 0.00 54 1011.9
20260904181046 79 160 1.0 10.0 0.00 0.00 0.00 54 1011.9
20260904180552 79 151 4.0 7.0 0.00 0.00 0.00 53 1011.8
20260904180042 80 144 4.0 10.0 0.00 0.00 0.00 53 1011.7
20260904175544 80 117 5.0 8.0 0.00 0.00 0.00 53 1011.7
20260904175048 80 164 2.0 10.0 0.00 0.00 0.00 52 1011.8
20260904174542 80 172 5.0 10.0 0.00 0.00 0.00 52 1011.9
20260904174042 80 137 5.0 11.0 0.00 0.00 0.00 52 1012.1
20260904173552 81 192 5.0 9.0 0.00 0.00 0.00 52 1012.1
20260904173047 81 149 4.0 8.0 0.00 0.00 0.00 51 1012.1
20260904172551 81 173 5.0 12.0 0.00 0.00 0.00 51 1012.0
20260904172045 81 174 6.0 9.0 0.00 0.00 0.00 51 1012.1
20260904171542 81 218 3.0 14.0 0.00 0.00 0.00 51 1012.1
20260904171047 81 157 9.0 14.0 0.00 0.00 0.00 50 1012.1
20260904170545 81 243 7.0 12.0 0.00 0.00 0.00 50 1012.1
20260904170042 82 179 7.0 11.0 0.00 0.00 0.00 50 1012.0
20260904165546 82 189 4.0 16.0 0.00 0.00 0.00 49 1011.9